DW6706 Weather Reports


Display with metric or nautical units.
time (UTC)temp
F
wind
direction
speed
MPH
gust
MPH
rain 1hr
in
rain 24hr
in
rain mn
in
humidity
%
barometer
mb
20260509222538 90 284 0.0 0.0 0.00 0.00 0.00 76 1007.1
20260509221538 90 284 0.0 0.0 0.00 0.00 0.00 73 1006.8
20260509220537 91 284 0.0 0.0 0.00 0.00 0.00 70 1006.9
20260509215537 91 284 0.0 0.0 0.00 0.00 0.00 68 1006.9
20260509214537 92 284 0.0 2.0 0.00 0.00 0.00 67 1006.9
20260509213537 92 284 0.0 1.0 0.00 0.00 0.00 69 1006.9
20260509212537 91 284 0.0 1.0 0.00 0.00 0.00 69 1006.8
20260509211537 91 284 0.0 1.0 0.00 0.00 0.00 70 1007.0
20260509210537 91 284 1.0 1.0 0.00 0.00 0.00 67 1007.1
20260509205537 91 284 0.0 5.0 0.00 0.00 0.00 66 1007.2
20260509204537 91 273 4.0 5.0 0.00 0.00 0.00 68 1007.4
20260509203537 91 298 0.0 4.0 0.00 0.00 0.00 70 1007.6
20260509202537 91 333 0.0 6.0 0.00 0.00 0.00 71 1007.7
20260509201537 90 5 1.0 4.0 0.00 0.00 0.00 72 1007.8
20260509200536 89 5 2.0 2.0 0.00 0.00 0.00 72 1007.9
20260509195537 88 290 0.0 2.0 0.00 0.00 0.00 73 1007.9
20260509194537 88 286 0.0 1.0 0.00 0.00 0.00 76 1008.1
20260509193537 88 286 0.0 4.0 0.00 0.00 0.00 73 1008.2
20260509191537 88 341 1.0 2.0 0.00 0.00 0.00 73 1008.4
20260509185536 87 348 1.0 5.0 0.00 0.00 0.00 74 1008.7
20260509184536 87 296 0.0 4.0 0.00 0.00 0.00 75 1008.8
20260509183536 86 344 0.0 1.0 0.00 0.00 0.00 78 1008.9
20260509182536 85 337 0.0 3.0 0.00 0.00 0.00 79 1009.0
20260509181536 85 290 1.0 4.0 0.00 0.00 0.00 77 1009.2
20260509180536 85 313 0.0 4.0 0.00 0.00 0.00 78 1009.4
20260509175536 85 325 0.0 2.0 0.00 0.00 0.00 79 1009.6
20260509173535 84 323 0.0 1.0 0.00 0.00 0.00 80 1009.6
20260509172536 83 323 0.0 3.0 0.00 0.00 0.00 80 1009.7
20260509171535 83 273 0.0 1.0 0.00 0.00 0.00 80 1009.5
20260509170535 82 273 0.0 3.0 0.00 0.00 0.00 83 1009.5
20260509165536 82 284 0.0 3.0 0.00 0.00 0.00 83 1009.3
20260509164535 81 284 0.0 2.0 0.00 0.00 0.00 86 1009.1
20260509163535 80 58 0.0 2.0 0.00 0.00 0.00 86 1009.4
20260509162535 79 75 0.0 4.0 0.00 0.00 0.00 87 1009.4
20260509161535 79 300 0.0 1.0 0.00 0.00 0.00 90 1009.7
20260509160535 78 300 0.0 0.0 0.00 0.00 0.00 90 1009.6
20260509155535 78 300 0.0 0.0 0.00 0.00 0.00 91 1009.9
20260509154535 78 300 0.0 0.0 0.00 0.00 0.00 92 1010.1
20260509153534 78 300 0.0 0.0 0.00 0.00 0.00 91 1010.2
20260509152534 77 300 0.0 0.0 0.00 0.00 0.00 92 1010.1
20260509151534 77 300 0.0 0.0 0.00 0.00 0.00 92 1010.0
20260509150534 77 300 0.0 0.0 0.00 0.00 0.00 93 1009.9
20260509145534 77 300 0.0 0.0 0.00 0.00 0.00 94 1009.8
20260509144534 76 300 0.0 2.0 0.00 0.00 0.00 94 1009.7
20260509143534 76 123 0.0 0.0 0.00 0.00 0.00 94 1009.6
20260509142535 76 123 0.0 0.0 0.00 0.00 0.00 95 1009.2
20260509141534 76 123 0.0 0.0 0.00 0.00 0.00 95 1009.3
20260509140534 76 123 0.0 0.0 0.00 0.00 0.00 95 1009.2
20260509135534 75 123 0.0 0.0 0.00 0.00 0.00 95 1009.4
20260509134534 75 123 0.0 0.0 0.00 0.00 0.00 95 1009.6
20260509133534 75 123 0.0 0.0 0.00 0.00 0.00 95 1009.7
20260509132534 75 123 0.0 0.0 0.00 0.00 0.00 95 1009.9
20260509130533 74 123 0.0 0.0 0.00 0.00 0.00 95 1010.0
20260509125533 74 123 0.0 0.0 0.00 0.00 0.00 95 1009.8
20260509124533 74 123 0.0 0.0 0.00 0.00 0.00 95 1009.8
20260509123533 74 123 0.0 0.0 0.00 0.00 0.00 94 1009.8
20260509122533 74 123 0.0 0.0 0.00 0.00 0.00 94 1009.6
20260509121533 74 123 0.0 0.0 0.00 0.00 0.00 94 1009.6
20260509113533 74 123 0.0 0.0 0.00 0.00 0.00 94 1009.4
20260509112533 74 123 0.0 0.0 0.00 0.00 0.00 94 1009.5
20260509111533 74 123 0.0 0.0 0.00 0.00 0.00 94 1009.4
20260509110533 74 123 0.0 0.0 0.00 0.00 0.00 94 1009.6
20260509105533 74 123 0.0 0.0 0.00 0.00 0.00 94 1009.7
20260509104532 74 123 0.0 0.0 0.00 0.00 0.00 94 1009.4
20260509103533 74 123 0.0 0.0 0.00 0.00 0.00 94 1009.5
20260509102532 74 123 0.0 0.0 0.00 0.00 0.00 94 1009.4
20260509101532 74 123 0.0 0.0 0.00 0.00 0.00 94 1009.0
20260509100532 74 123 0.0 0.0 0.00 0.00 0.00 94 1008.9
20260509095532 74 123 0.0 0.0 0.00 0.00 0.00 94 1008.7
20260509094532 74 123 0.0 0.0 0.00 0.00 0.00 94 1008.8
20260509093532 74 123 0.0 0.0 0.00 0.00 0.00 94 1008.7
20260509092532 74 123 0.0 0.0 0.00 0.00 0.00 94 1008.8
20260509090532 74 123 0.0 0.0 0.00 0.00 0.00 94 1009.0
20260509085532 74 123 0.0 0.0 0.00 0.00 0.00 94 1009.1
20260509084532 74 123 0.0 0.0 0.00 0.00 0.00 94 1009.3
20260509083532 74 123 0.0 0.0 0.00 0.00 0.00 94 1009.4
20260509082532 74 123 0.0 0.0 0.00 0.00 0.00 94 1009.4
20260509081532 74 123 0.0 0.0 0.00 0.00 0.00 94 1009.4
20260509080532 74 123 0.0 0.0 0.00 0.00 0.00 94 1009.1
20260509075532 74 123 0.0 0.0 0.00 0.00 0.00 94 1009.0
20260509074532 74 123 0.0 0.0 0.00 0.00 0.00 94 1008.9
20260509073532 74 123 0.0 0.0 0.00 0.00 0.00 94 1009.1
20260509072531 74 123 0.0 0.0 0.00 0.00 0.00 94 1009.0
20260509071531 74 123 0.0 0.0 0.00 0.00 0.00 94 1009.0
20260509070531 74 123 0.0 0.0 0.00 0.00 0.00 94 1009.0
20260509065531 74 123 0.0 0.0 0.00 0.00 0.00 94 1009.0
20260509064531 74 123 0.0 0.0 0.00 0.00 0.00 94 1009.1
20260509063531 74 123 0.0 0.0 0.00 0.00 0.00 93 1009.2
20260509062531 74 123 0.0 0.0 0.00 0.00 0.00 93 1009.2
20260509061531 74 123 0.0 0.0 0.00 0.00 0.00 94 1009.3
20260509055531 74 123 0.0 0.0 0.00 0.00 0.00 94 1009.6
20260509054531 74 123 0.0 0.0 0.00 0.00 0.00 94 1009.7
20260509053530 74 123 0.0 0.0 0.00 0.00 0.00 93 1009.7
20260509052530 74 123 0.0 0.0 0.00 0.00 0.00 94 1009.7
20260509051530 73 123 0.0 0.0 0.00 0.00 0.00 93 1009.6
20260509050530 73 123 0.0 0.0 0.00 0.00 0.00 93 1009.6
20260509045530 73 123 0.0 0.0 0.00 0.00 0.00 93 1009.7
20260509044530 73 123 0.0 0.0 0.00 0.00 0.00 93 1009.7
20260509043530 73 123 0.0 0.0 0.00 0.00 0.00 93 1009.7
20260509042530 73 123 0.0 0.0 0.00 0.00 0.00 93 1009.7
20260509041530 73 123 0.0 0.0 0.00 0.00 0.00 93 1009.7
20260509040530 73 123 0.0 0.0 0.00 0.00 0.00 93 1009.6
20260509035530 73 123 0.0 0.0 0.00 0.00 0.00 93 1009.6
20260509033530 73 123 0.0 0.0 0.00 0.00 0.00 92 1009.1
20260509032529 73 123 0.0 0.0 0.00 0.00 0.00 92 1009.1
20260509031529 74 123 0.0 0.0 0.00 0.00 0.00 92 1009.4
20260509025530 74 123 0.0 1.0 0.00 0.00 0.00 92 1009.2
20260509022529 74 123 0.0 1.0 0.00 0.00 0.00 92 1008.7
20260509021529 74 123 0.0 1.0 0.00 0.00 0.00 91 1008.5
20260509020529 74 123 0.0 0.0 0.00 0.00 0.00 91 1008.5
20260509015529 74 123 0.0 2.0 0.00 0.00 0.00 91 1008.5
20260509014529 74 234 0.0 0.0 0.00 0.00 0.00 91 1008.4
20260509011528 75 213 0.0 1.0 0.00 0.00 0.00 90 1008.5
20260509010529 75 213 0.0 1.0 0.00 0.00 0.00 89 1008.4
20260509005529 75 213 0.0 1.0 0.00 0.00 0.00 89 1008.3
20260509004529 76 213 0.0 1.0 0.00 0.00 0.00 89 1008.1
20260509003528 76 174 0.0 0.0 0.00 0.00 0.00 88 1008.0
20260509002528 76 174 0.0 0.0 0.00 0.00 0.00 88 1008.0
20260509000528 76 173 0.0 1.0 0.00 0.00 0.00 87 1008.4
20260508235528 77 173 0.0 1.0 0.00 0.00 0.00 87 1008.5
20260508234528 77 173 0.0 0.0 0.00 0.00 0.00 87 1008.3
20260508233528 77 173 0.0 2.0 0.00 0.00 0.00 86 1008.6
20260508232528 77 277 0.0 2.0 0.00 0.00 0.00 86 1008.5
20260508230528 78 342 0.0 0.0 0.00 0.00 0.00 86 1008.4
20260508225528 78 342 0.0 1.0 0.00 0.00 0.00 85 1008.4
20260508224528 78 341 1.0 1.0 0.00 0.00 0.00 86 1008.4
20260508223528 79 341 0.0 0.0 0.00 0.00 0.00 85 1008.4